Вернуться в каталог

STARLINK-34093

АктивенСвязьVLEO
NORAD 64015·PAYLOAD·🇺🇸 United States

Запущен May 14, 2025 с Cape Canaveral Space Force Station

Loading…

Ближайшие Пролёты (ближайшие 24 часа)

TLE

СвежийSource: CelesTrak SupGP

Эпоха: Sep 15, 2026, 02:36 UTC

1 64015C 25101X   26258.10881944  .00015916  00000+0  57642-3 0  2589
2 64015  43.0038   8.0313 0001526 267.0174 199.6889 15.27574456    19

Отслеживайте STARLINK-34093 в реальном времени с AllMySat

Download on the App Store